| time (UTC) | temp F | wind direction | speed MPH | gust MPH | rain 1hr in | rain 24hr in | rain mn in | humidity % | barometer mb |
| 20260506164912 | 52 | 356 | 7.0 | 10.0 | 0.00 | 0.06 | 0.06 | 87 | 1015.9 |
| 20260506164409 | 52 | 322 | 4.0 | 6.0 | 0.00 | 0.06 | 0.06 | 87 | 1016.0 |
| 20260506163908 | 52 | 339 | 6.0 | 8.0 | 0.00 | 0.06 | 0.06 | 87 | 1015.9 |
| 20260506163401 | 53 | 304 | 6.0 | 7.0 | 0.00 | 0.06 | 0.06 | 87 | 1016.1 |
| 20260506162856 | 52 | 339 | 4.0 | 6.0 | 0.00 | 0.06 | 0.06 | 87 | 1016.1 |
| 20260506162355 | 52 | 305 | 6.0 | 7.0 | 0.00 | 0.06 | 0.06 | 87 | 1016.0 |
| 20260506161852 | 52 | 314 | 8.0 | 11.0 | 0.00 | 0.06 | 0.06 | 87 | 1014.6 |
| 20260506161349 | 52 | 345 | 7.0 | 9.0 | 0.00 | 0.06 | 0.06 | 87 | 1014.9 |
| 20260506160847 | 52 | 334 | 5.0 | 10.0 | 0.00 | 0.06 | 0.06 | 87 | 1014.3 |
| 20260506160344 | 53 | 344 | 10.0 | 16.0 | 0.00 | 0.06 | 0.06 | 87 | 1014.3 |
| 20260506155842 | 53 | 331 | 8.0 | 13.0 | 0.00 | 0.06 | 0.06 | 87 | 1014.6 |
| 20260506155338 | 53 | 9 | 6.0 | 8.0 | 0.00 | 0.06 | 0.06 | 87 | 1014.6 |
| 20260506153450 | 52 | 304 | 7.0 | 8.0 | 0.12 | 0.05 | 0.05 | 86 | 1015.1 |
| 20260506152948 | 52 | 51 | 5.0 | 8.0 | 0.12 | 0.04 | 0.04 | 86 | 1014.9 |
| 20260506152444 | 52 | 76 | 5.0 | 7.0 | 0.12 | 0.03 | 0.03 | 86 | 1014.7 |
| 20260506151943 | 52 | 80 | 3.0 | 6.0 | 0.12 | 0.02 | 0.02 | 85 | 1014.8 |
| 20260506151440 | 52 | 40 | 3.0 | 5.0 | 0.07 | 0.01 | 0.01 | 85 | 1014.8 |
| 20260506150938 | 52 | 14 | 4.0 | 5.0 | 0.00 | 0.00 | 0.00 | 85 | 1015.3 |
| 20260506150433 | 52 | 358 | 6.0 | 8.0 | 0.00 | 0.00 | 0.00 | 84 | 1015.5 |
| 20260506145931 | 52 | 263 | 5.0 | 7.0 | 0.00 | 0.00 | 0.00 | 84 | 1016.0 |
| 20260506145427 | 52 | 335 | 10.0 | 13.0 | 0.00 | 0.00 | 0.00 | 84 | 1015.6 |
| 20260506144925 | 52 | 327 | 10.0 | 13.0 | 0.00 | 0.00 | 0.00 | 84 | 1015.7 |
| 20260506144421 | 53 | 288 | 9.0 | 11.0 | 0.00 | 0.00 | 0.00 | 83 | 1016.0 |
| 20260506143919 | 53 | 277 | 6.0 | 7.0 | 0.00 | 0.00 | 0.00 | 83 | 1016.8 |
| 20260506143416 | 53 | 22 | 7.0 | 8.0 | 0.00 | 0.00 | 0.00 | 83 | 1015.6 |
| 20260506142914 | 53 | 291 | 10.0 | 15.0 | 0.00 | 0.00 | 0.00 | 83 | 1016.3 |
| 20260506142412 | 53 | 324 | 13.0 | 17.0 | 0.00 | 0.00 | 0.00 | 82 | 1015.6 |
| 20260506141910 | 54 | 258 | 5.0 | 7.0 | 0.00 | 0.00 | 0.00 | 82 | 1015.9 |
| 20260506141408 | 54 | 326 | 18.0 | 24.0 | 0.00 | 0.00 | 0.00 | 81 | 1016.0 |
| 20260506140906 | 55 | 309 | 11.0 | 17.0 | 0.00 | 0.00 | 0.00 | 81 | 1016.4 |
| 20260506140402 | 55 | 260 | 8.0 | 11.0 | 0.00 | 0.00 | 0.00 | 81 | 1016.2 |
| 20260506135859 | 55 | 354 | 11.0 | 15.0 | 0.00 | 0.00 | 0.00 | 81 | 1016.1 |
| 20260506135356 | 55 | 307 | 9.0 | 13.0 | 0.00 | 0.00 | 0.00 | 81 | 1015.8 |
| 20260506134852 | 55 | 302 | 5.0 | 6.0 | 0.00 | 0.00 | 0.00 | 82 | 1015.4 |
| 20260506134349 | 56 | 331 | 9.0 | 11.0 | 0.00 | 0.00 | 0.00 | 82 | 1015.1 |
| 20260506133846 | 56 | 278 | 7.0 | 9.0 | 0.00 | 0.00 | 0.00 | 82 | 1014.6 |
| 20260506133342 | 56 | 306 | 11.0 | 14.0 | 0.00 | 0.00 | 0.00 | 82 | 1014.4 |
| 20260506132839 | 56 | 355 | 7.0 | 10.0 | 0.00 | 0.00 | 0.00 | 82 | 1014.4 |
| 20260506132336 | 56 | 11 | 5.0 | 7.0 | 0.00 | 0.00 | 0.00 | 82 | 1014.2 |
| 20260506131834 | 56 | 327 | 8.0 | 11.0 | 0.00 | 0.00 | 0.00 | 82 | 1014.0 |
| 20260506131330 | 57 | 312 | 7.0 | 10.0 | 0.00 | 0.00 | 0.00 | 82 | 1014.0 |
| 20260506130828 | 57 | 335 | 4.0 | 10.0 | 0.00 | 0.00 | 0.00 | 82 | 1014.0 |
| 20260506130324 | 57 | 319 | 3.0 | 3.0 | 0.00 | 0.00 | 0.00 | 82 | 1013.8 |
| 20260506125822 | 57 | 319 | 9.0 | 14.0 | 0.00 | 0.00 | 0.00 | 82 | 1013.8 |
| 20260506125320 | 57 | 352 | 10.0 | 13.0 | 0.00 | 0.00 | 0.00 | 82 | 1013.8 |
| 20260506124818 | 58 | 9 | 10.0 | 14.0 | 0.00 | 0.00 | 0.00 | 81 | 1013.7 |
| 20260506124315 | 58 | 304 | 7.0 | 10.0 | 0.00 | 0.00 | 0.00 | 81 | 1013.4 |
| 20260506123812 | 58 | 339 | 9.0 | 10.0 | 0.00 | 0.00 | 0.00 | 80 | 1013.2 |
| 20260506123311 | 58 | 339 | 8.0 | 10.0 | 0.00 | 0.00 | 0.00 | 80 | 1013.1 |
| 20260506122807 | 58 | 315 | 9.0 | 13.0 | 0.00 | 0.00 | 0.00 | 80 | 1013.3 |
| 20260506122306 | 58 | 323 | 9.0 | 10.0 | 0.00 | 0.00 | 0.00 | 80 | 1013.3 |
| 20260506121803 | 59 | 344 | 9.0 | 10.0 | 0.00 | 0.00 | 0.00 | 80 | 1013.3 |
| 20260506121259 | 59 | 298 | 6.0 | 7.0 | 0.00 | 0.00 | 0.00 | 80 | 1013.0 |
| 20260506120756 | 59 | 313 | 5.0 | 8.0 | 0.00 | 0.00 | 0.00 | 79 | 1013.1 |
| 20260506120254 | 59 | 5 | 10.0 | 13.0 | 0.00 | 0.00 | 0.00 | 79 | 1012.9 |
| 20260506115752 | 59 | 344 | 5.0 | 6.0 | 0.00 | 0.00 | 0.00 | 79 | 1012.8 |
| 20260506115250 | 59 | 337 | 6.0 | 7.0 | 0.00 | 0.00 | 0.00 | 79 | 1012.9 |
| 20260506114747 | 59 | 291 | 8.0 | 10.0 | 0.00 | 0.00 | 0.00 | 79 | 1012.8 |
| 20260506114245 | 60 | 328 | 9.0 | 11.0 | 0.00 | 0.00 | 0.00 | 79 | 1012.8 |
| 20260506113743 | 60 | 5 | 3.0 | 3.0 | 0.00 | 0.00 | 0.00 | 79 | 1012.7 |
| 20260506113240 | 60 | 285 | 8.0 | 9.0 | 0.00 | 0.00 | 0.00 | 79 | 1013.0 |
| 20260506112736 | 60 | 278 | 5.0 | 6.0 | 0.00 | 0.00 | 0.00 | 79 | 1012.9 |
| 20260506112234 | 60 | 300 | 3.0 | 3.0 | 0.00 | 0.00 | 0.00 | 79 | 1012.7 |
| 20260506111731 | 60 | 343 | 7.0 | 7.0 | 0.00 | 0.00 | 0.00 | 79 | 1012.7 |
| 20260506111230 | 60 | 337 | 2.0 | 2.0 | 0.00 | 0.00 | 0.00 | 79 | 1012.6 |
| 20260506110726 | 60 | 356 | 3.0 | 6.0 | 0.00 | 0.00 | 0.00 | 79 | 1012.5 |
| 20260506110224 | 60 | 17 | 1.0 | 1.0 | 0.00 | 0.00 | 0.00 | 79 | 1012.7 |
| 20260506105720 | 60 | 345 | 3.0 | 5.0 | 0.00 | 0.00 | 0.00 | 79 | 1012.2 |
| 20260506105217 | 60 | 322 | 7.0 | 9.0 | 0.00 | 0.00 | 0.00 | 78 | 1012.3 |
| 20260506104715 | 61 | 300 | 4.0 | 6.0 | 0.00 | 0.00 | 0.00 | 78 | 1012.2 |
| 20260506104212 | 61 | 289 | 6.0 | 8.0 | 0.00 | 0.00 | 0.00 | 78 | 1012.0 |
| 20260506103709 | 61 | 3 | 5.0 | 6.0 | 0.00 | 0.00 | 0.00 | 78 | 1012.2 |
| 20260506103206 | 61 | 280 | 6.0 | 7.0 | 0.00 | 0.00 | 0.00 | 78 | 1012.0 |
| 20260506102704 | 61 | 8 | 8.0 | 9.0 | 0.00 | 0.00 | 0.00 | 78 | 1012.1 |
| 20260506102202 | 61 | 337 | 3.0 | 5.0 | 0.00 | 0.00 | 0.00 | 78 | 1011.9 |
| 20260506101659 | 61 | 291 | 7.0 | 8.0 | 0.00 | 0.00 | 0.00 | 78 | 1012.0 |
| 20260506101155 | 61 | 332 | 6.0 | 7.0 | 0.00 | 0.00 | 0.00 | 78 | 1011.7 |
| 20260506100653 | 61 | 300 | 9.0 | 13.0 | 0.00 | 0.00 | 0.00 | 78 | 1011.8 |
| 20260506100151 | 61 | 299 | 6.0 | 8.0 | 0.00 | 0.00 | 0.00 | 78 | 1011.8 |
| 20260506095650 | 61 | 282 | 5.0 | 7.0 | 0.00 | 0.00 | 0.00 | 78 | 1011.6 |
| 20260506095146 | 62 | 301 | 5.0 | 8.0 | 0.00 | 0.00 | 0.00 | 78 | 1011.6 |
| 20260506094643 | 62 | 13 | 2.0 | 3.0 | 0.00 | 0.00 | 0.00 | 78 | 1011.3 |
| 20260506094141 | 62 | 311 | 9.0 | 13.0 | 0.00 | 0.00 | 0.00 | 78 | 1011.4 |
| 20260506093639 | 62 | 289 | 5.0 | 6.0 | 0.00 | 0.00 | 0.00 | 78 | 1011.3 |
| 20260506093136 | 62 | 300 | 7.0 | 8.0 | 0.00 | 0.00 | 0.00 | 78 | 1011.5 |
| 20260506092634 | 63 | 304 | 7.0 | 8.0 | 0.00 | 0.00 | 0.00 | 78 | 1011.4 |
| 20260506092131 | 63 | 273 | 5.0 | 6.0 | 0.00 | 0.00 | 0.00 | 78 | 1011.1 |
| 20260506091629 | 63 | 321 | 6.0 | 8.0 | 0.00 | 0.00 | 0.00 | 78 | 1011.2 |
| 20260506091126 | 63 | 277 | 8.0 | 10.0 | 0.00 | 0.00 | 0.00 | 78 | 1011.1 |
| 20260506090624 | 63 | 304 | 3.0 | 3.0 | 0.00 | 0.00 | 0.00 | 77 | 1011.2 |
| 20260506090120 | 64 | 296 | 10.0 | 11.0 | 0.00 | 0.00 | 0.00 | 78 | 1011.3 |
| 20260506085617 | 64 | 286 | 6.0 | 7.0 | 0.00 | 0.00 | 0.00 | 78 | 1011.4 |
| 20260506085113 | 64 | 9 | 1.0 | 2.0 | 0.00 | 0.00 | 0.00 | 77 | 1011.2 |
| 20260506084610 | 64 | 310 | 7.0 | 9.0 | 0.00 | 0.00 | 0.00 | 77 | 1011.1 |
| 20260506084107 | 64 | 268 | 5.0 | 6.0 | 0.00 | 0.00 | 0.00 | 77 | 1011.1 |
| 20260506083604 | 65 | 299 | 9.0 | 9.0 | 0.00 | 0.00 | 0.00 | 77 | 1010.9 |
| 20260506083101 | 65 | 300 | 7.0 | 9.0 | 0.00 | 0.00 | 0.00 | 77 | 1011.1 |
| 20260506082558 | 65 | 323 | 7.0 | 8.0 | 0.00 | 0.00 | 0.00 | 77 | 1011.0 |
| 20260506082053 | 65 | 329 | 6.0 | 7.0 | 0.00 | 0.00 | 0.00 | 77 | 1011.1 |
| 20260506081552 | 65 | 300 | 7.0 | 8.0 | 0.00 | 0.00 | 0.00 | 77 | 1011.0 |
| 20260506081049 | 66 | 313 | 7.0 | 7.0 | 0.00 | 0.00 | 0.00 | 77 | 1010.8 |
| 20260506080547 | 66 | 355 | 3.0 | 5.0 | 0.00 | 0.00 | 0.00 | 77 | 1010.7 |
| 20260506073027 | 66 | 355 | 3.0 | 3.0 | 0.00 | 0.00 | 0.00 | 77 | 1010.8 |
| 20260506072524 | 66 | 298 | 3.0 | 3.0 | 0.00 | 0.00 | 0.00 | 77 | 1010.7 |
| 20260506072022 | 66 | 323 | 4.0 | 5.0 | 0.00 | 0.00 | 0.00 | 78 | 1010.8 |
| 20260506071520 | 66 | 306 | 3.0 | 5.0 | 0.00 | 0.00 | 0.00 | 78 | 1010.8 |
| 20260506071016 | 66 | 349 | 2.0 | 3.0 | 0.00 | 0.00 | 0.00 | 78 | 1011.0 |
| 20260506070514 | 66 | 310 | 2.0 | 3.0 | 0.00 | 0.00 | 0.00 | 77 | 1010.7 |
| 20260506062451 | 67 | 340 | 4.0 | 5.0 | 0.00 | 0.00 | 0.00 | 77 | 1011.0 |
| 20260506061947 | 67 | 303 | 2.0 | 3.0 | 0.00 | 0.00 | 0.00 | 77 | 1010.8 |
| 20260506061444 | 67 | 353 | 1.0 | 2.0 | 0.00 | 0.00 | 0.00 | 77 | 1010.7 |
| 20260506060942 | 67 | 337 | 2.0 | 2.0 | 0.00 | 0.00 | 0.00 | 76 | 1010.8 |
| 20260506060440 | 67 | 337 | 2.0 | 3.0 | 0.00 | 0.00 | 0.00 | 76 | 1010.7 |
| 20260506051412 | 70 | 315 | 3.0 | 3.0 | 0.00 | 0.00 | 0.00 | 73 | 1010.8 |
| 20260506050908 | 70 | 299 | 3.0 | 3.0 | 0.00 | 0.00 | 0.00 | 72 | 1010.8 |
| 20260506050406 | 71 | 284 | 4.0 | 6.0 | 0.00 | 0.00 | 0.00 | 72 | 1010.8 |
| 20260506044856 | 72 | 290 | 6.0 | 8.0 | 0.00 | 0.00 | 0.00 | 73 | 1010.8 |
| 20260506044354 | 72 | 302 | 6.0 | 7.0 | 0.00 | 0.00 | 0.00 | 73 | 1010.8 |
| 20260506043851 | 73 | 323 | 7.0 | 9.0 | 0.00 | 0.00 | 0.00 | 75 | 1010.8 |
| 20260506043348 | 76 | 339 | 1.0 | 2.0 | 0.00 | 0.00 | 0.00 | 79 | 1010.8 |
| 20260506042847 | 76 | 345 | 1.0 | 1.0 | 0.00 | 0.00 | 0.00 | 79 | 1010.5 |
| 20260506042345 | 76 | 287 | 2.0 | 2.0 | 0.00 | 0.00 | 0.00 | 79 | 1010.7 |
| 20260506041844 | 76 | 295 | 2.0 | 2.0 | 0.00 | 0.00 | 0.00 | 78 | 1010.4 |
| 20260506041340 | 76 | 300 | 4.0 | 5.0 | 0.00 | 0.00 | 0.00 | 78 | 1010.3 |
| 20260506040837 | 76 | 259 | 3.0 | 3.0 | 0.00 | 0.00 | 0.00 | 78 | 1010.3 |
| 20260506040335 | 76 | 223 | 2.0 | 2.0 | 0.00 | 0.00 | 0.00 | 79 | 1010.2 |
| 20260506035831 | 76 | 6 | 1.0 | 1.0 | 0.00 | 0.00 | 0.00 | 79 | 1010.3 |
| 20260506035329 | 76 | 293 | 7.0 | 8.0 | 0.00 | 0.00 | 0.00 | 79 | 1010.1 |
| 20260506034825 | 76 | 280 | 5.0 | 6.0 | 0.00 | 0.00 | 0.00 | 79 | 1010.0 |
| 20260506034323 | 76 | 317 | 3.0 | 3.0 | 0.00 | 0.00 | 0.00 | 78 | 1009.7 |
| 20260506033820 | 77 | 322 | 4.0 | 5.0 | 0.00 | 0.00 | 0.00 | 78 | 1009.4 |
| 20260506033317 | 77 | 312 | 3.0 | 5.0 | 0.00 | 0.00 | 0.00 | 78 | 1009.2 |
| 20260506032813 | 77 | 80 | 0.0 | 1.0 | 0.00 | 0.00 | 0.00 | 77 | 1009.0 |
| 20260506032310 | 77 | 153 | 3.0 | 5.0 | 0.00 | 0.00 | 0.00 | 77 | 1008.8 |
| 20260506031807 | 77 | 129 | 3.0 | 5.0 | 0.00 | 0.00 | 0.00 | 77 | 1008.7 |
| 20260506031304 | 77 | 125 | 4.0 | 5.0 | 0.00 | 0.00 | 0.00 | 77 | 1008.5 |
| 20260506030802 | 77 | 136 | 5.0 | 7.0 | 0.00 | 0.00 | 0.00 | 77 | 1008.5 |
| 20260506030300 | 77 | 116 | 3.0 | 3.0 | 0.00 | 0.00 | 0.00 | 77 | 1008.3 |
| 20260506025757 | 77 | 90 | 4.0 | 6.0 | 0.00 | 0.00 | 0.00 | 77 | 1008.2 |
| 20260506025253 | 77 | 106 | 5.0 | 6.0 | 0.00 | 0.00 | 0.00 | 77 | 1008.3 |
| 20260506024750 | 77 | 126 | 6.0 | 7.0 | 0.00 | 0.00 | 0.00 | 77 | 1008.3 |
| 20260506024246 | 77 | 131 | 3.0 | 5.0 | 0.00 | 0.00 | 0.00 | 76 | 1008.3 |
| 20260506023742 | 77 | 151 | 3.0 | 3.0 | 0.00 | 0.00 | 0.00 | 76 | 1008.2 |
| 20260506023240 | 78 | 107 | 2.0 | 6.0 | 0.00 | 0.00 | 0.00 | 75 | 1008.1 |
| 20260506022736 | 78 | 127 | 4.0 | 5.0 | 0.00 | 0.00 | 0.00 | 75 | 1008.1 |
| 20260506022235 | 78 | 77 | 2.0 | 3.0 | 0.00 | 0.00 | 0.00 | 75 | 1007.8 |
| 20260506021732 | 78 | 93 | 4.0 | 6.0 | 0.00 | 0.00 | 0.00 | 75 | 1007.6 |
| 20260506021229 | 78 | 142 | 3.0 | 3.0 | 0.00 | 0.00 | 0.00 | 75 | 1007.6 |
| 20260506020726 | 78 | 121 | 2.0 | 3.0 | 0.00 | 0.00 | 0.00 | 75 | 1007.7 |
| 20260506020224 | 78 | 127 | 2.0 | 3.0 | 0.00 | 0.00 | 0.00 | 74 | 1007.7 |
| 20260506015721 | 78 | 110 | 2.0 | 3.0 | 0.00 | 0.00 | 0.00 | 74 | 1007.5 |
| 20260506015219 | 79 | 119 | 3.0 | 5.0 | 0.00 | 0.00 | 0.00 | 74 | 1007.6 |
| 20260506014715 | 79 | 86 | 3.0 | 3.0 | 0.00 | 0.00 | 0.00 | 73 | 1007.6 |
| 20260506014211 | 79 | 115 | 5.0 | 6.0 | 0.00 | 0.00 | 0.00 | 73 | 1007.4 |
| 20260506013709 | 79 | 119 | 2.0 | 2.0 | 0.00 | 0.00 | 0.00 | 73 | 1007.2 |
| 20260506013206 | 79 | 127 | 2.0 | 3.0 | 0.00 | 0.00 | 0.00 | 72 | 1007.1 |
| 20260506012702 | 80 | 134 | 3.0 | 5.0 | 0.00 | 0.00 | 0.00 | 71 | 1007.2 |
| 20260506012159 | 80 | 71 | 0.0 | 1.0 | 0.00 | 0.00 | 0.00 | 71 | 1007.3 |
| 20260506011657 | 80 | 103 | 3.0 | 3.0 | 0.00 | 0.00 | 0.00 | 70 | 1007.1 |
| 20260506011152 | 80 | 126 | 3.0 | 3.0 | 0.00 | 0.00 | 0.00 | 70 | 1006.9 |
| 20260506010651 | 81 | 133 | 2.0 | 3.0 | 0.00 | 0.00 | 0.00 | 69 | 1006.9 |
| 20260506010148 | 81 | 98 | 3.0 | 3.0 | 0.00 | 0.00 | 0.00 | 68 | 1006.7 |
| 20260506005645 | 81 | 99 | 1.0 | 1.0 | 0.00 | 0.00 | 0.00 | 68 | 1006.7 |
| 20260506005142 | 82 | 138 | 3.0 | 3.0 | 0.00 | 0.00 | 0.00 | 67 | 1006.6 |
| 20260506004638 | 82 | 87 | 0.0 | 1.0 | 0.00 | 0.00 | 0.00 | 67 | 1006.9 |
| 20260506004135 | 82 | 121 | 2.0 | 2.0 | 0.00 | 0.00 | 0.00 | 66 | 1006.9 |
| 20260506003632 | 83 | 81 | 1.0 | 1.0 | 0.00 | 0.00 | 0.00 | 66 | 1006.5 |
| 20260506003128 | 83 | 119 | 1.0 | 1.0 | 0.00 | 0.00 | 0.00 | 65 | 1006.9 |
| 20260506002624 | 83 | 79 | 2.0 | 2.0 | 0.00 | 0.00 | 0.00 | 65 | 1006.9 |
| 20260506002120 | 84 | 102 | 0.0 | 1.0 | 0.00 | 0.00 | 0.00 | 64 | 1006.7 |
| 20260506001616 | 84 | 111 | 2.0 | 2.0 | 0.00 | 0.00 | 0.00 | 63 | 1006.9 |
| 20260506001114 | 84 | 108 | 1.0 | 2.0 | 0.00 | 0.00 | 0.00 | 62 | 1006.7 |
| 20260506000611 | 85 | 103 | 4.0 | 5.0 | 0.00 | 0.00 | 0.00 | 61 | 1006.9 |
| 20260506000108 | 85 | 129 | 5.0 | 7.0 | 0.00 | 0.00 | 0.00 | 60 | 1007.1 |
| 20260505235606 | 86 | 49 | 2.0 | 2.0 | 0.00 | 0.00 | 0.00 | 60 | 1006.9 |
| 20260505235103 | 86 | 161 | 3.0 | 6.0 | 0.00 | 0.00 | 0.00 | 60 | 1007.0 |
| 20260505234600 | 86 | 72 | 1.0 | 1.0 | 0.00 | 0.00 | 0.00 | 61 | 1006.6 |
| 20260505234056 | 85 | 173 | 5.0 | 6.0 | 0.00 | 0.00 | 0.00 | 61 | 1006.5 |
| 20260505233554 | 85 | 106 | 3.0 | 5.0 | 0.00 | 0.00 | 0.00 | 61 | 1006.6 |
| 20260505233051 | 86 | 79 | 3.0 | 5.0 | 0.00 | 0.00 | 0.00 | 61 | 1006.6 |
| 20260505232549 | 86 | 77 | 1.0 | 2.0 | 0.00 | 0.00 | 0.00 | 61 | 1006.7 |
| 20260505232046 | 86 | 74 | 3.0 | 3.0 | 0.00 | 0.00 | 0.00 | 60 | 1006.3 |
| 20260505231543 | 87 | 164 | 4.0 | 6.0 | 0.00 | 0.00 | 0.00 | 59 | 1006.6 |
| 20260505231042 | 87 | 91 | 4.0 | 6.0 | 0.00 | 0.00 | 0.00 | 59 | 1006.7 |
| 20260505230539 | 87 | 154 | 5.0 | 8.0 | 0.00 | 0.00 | 0.00 | 59 | 1006.7 |
| 20260505230035 | 87 | 76 | 2.0 | 3.0 | 0.00 | 0.00 | 0.00 | 58 | 1006.6 |
| 20260505225532 | 87 | 239 | 5.0 | 7.0 | 0.00 | 0.00 | 0.00 | 58 | 1006.6 |
| 20260505225028 | 87 | 168 | 3.0 | 7.0 | 0.00 | 0.00 | 0.00 | 58 | 1006.6 |
| 20260505224525 | 87 | 149 | 5.0 | 6.0 | 0.00 | 0.00 | 0.00 | 58 | 1006.6 |
| 20260505224022 | 87 | 134 | 9.0 | 10.0 | 0.00 | 0.00 | 0.00 | 57 | 1006.7 |
| 20260505223520 | 88 | 63 | 6.0 | 8.0 | 0.00 | 0.00 | 0.00 | 56 | 1006.6 |
| 20260505223016 | 89 | 130 | 8.0 | 9.0 | 0.00 | 0.00 | 0.00 | 55 | 1006.4 |
| 20260505222512 | 89 | 105 | 0.0 | 1.0 | 0.00 | 0.00 | 0.00 | 56 | 1006.3 |
| 20260505222008 | 88 | 117 | 3.0 | 5.0 | 0.00 | 0.00 | 0.00 | 56 | 1006.3 |
| 20260505221506 | 89 | 86 | 5.0 | 7.0 | 0.00 | 0.00 | 0.00 | 55 | 1006.3 |
| 20260505221002 | 89 | 132 | 6.0 | 8.0 | 0.00 | 0.00 | 0.00 | 54 | 1006.3 |
| 20260505220459 | 89 | 181 | 1.0 | 2.0 | 0.00 | 0.00 | 0.00 | 53 | 1006.4 |
| 20260505215957 | 90 | 106 | 7.0 | 8.0 | 0.00 | 0.00 | 0.00 | 52 | 1006.5 |
| 20260505215455 | 90 | 153 | 6.0 | 7.0 | 0.00 | 0.00 | 0.00 | 49 | 1006.5 |
| 20260505214952 | 90 | 189 | 2.0 | 3.0 | 0.00 | 0.00 | 0.00 | 48 | 1006.5 |
| 20260505214450 | 90 | 87 | 2.0 | 3.0 | 0.00 | 0.00 | 0.00 | 48 | 1006.4 |
| 20260505213947 | 90 | 210 | 3.0 | 3.0 | 0.00 | 0.00 | 0.00 | 49 | 1006.5 |
| 20260505213445 | 89 | 123 | 1.0 | 2.0 | 0.00 | 0.00 | 0.00 | 50 | 1006.5 |
| 20260505212941 | 90 | 200 | 1.0 | 1.0 | 0.00 | 0.00 | 0.00 | 50 | 1006.4 |
| 20260505212438 | 89 | 254 | 3.0 | 3.0 | 0.00 | 0.00 | 0.00 | 50 | 1006.2 |
| 20260505211934 | 90 | 137 | 7.0 | 8.0 | 0.00 | 0.00 | 0.00 | 49 | 1006.5 |
| 20260505211432 | 90 | 107 | 4.0 | 5.0 | 0.00 | 0.00 | 0.00 | 50 | 1006.6 |
| 20260505210928 | 89 | 117 | 4.0 | 5.0 | 0.00 | 0.00 | 0.00 | 51 | 1006.6 |
| 20260505210425 | 89 | 108 | 6.0 | 8.0 | 0.00 | 0.00 | 0.00 | 51 | 1007.0 |
| 20260505205922 | 89 | 197 | 4.0 | 6.0 | 0.00 | 0.00 | 0.00 | 51 | 1007.1 |
| 20260505205421 | 89 | 70 | 1.0 | 3.0 | 0.00 | 0.00 | 0.00 | 50 | 1007.2 |
| 20260505204917 | 89 | 162 | 5.0 | 6.0 | 0.00 | 0.00 | 0.00 | 49 | 1007.3 |
| 20260505204415 | 89 | 77 | 3.0 | 5.0 | 0.00 | 0.00 | 0.00 | 51 | 1007.2 |
| 20260505203912 | 89 | 178 | 4.0 | 5.0 | 0.00 | 0.00 | 0.00 | 49 | 1007.3 |
| 20260505203408 | 89 | 150 | 6.0 | 7.0 | 0.00 | 0.00 | 0.00 | 50 | 1007.2 |
| 20260505202904 | 89 | 157 | 2.0 | 2.0 | 0.00 | 0.00 | 0.00 | 50 | 1007.1 |
| 20260505202401 | 89 | 129 | 5.0 | 7.0 | 0.00 | 0.00 | 0.00 | 50 | 1007.2 |
| 20260505201857 | 89 | 215 | 3.0 | 5.0 | 0.00 | 0.00 | 0.00 | 51 | 1007.5 |
| 20260505201354 | 89 | 196 | 3.0 | 3.0 | 0.00 | 0.00 | 0.00 | 51 | 1007.6 |
| 20260505200853 | 88 | 37 | 1.0 | 1.0 | 0.00 | 0.00 | 0.00 | 51 | 1007.7 |
| 20260505200349 | 88 | 253 | 5.0 | 6.0 | 0.00 | 0.00 | 0.00 | 50 | 1007.8 |
| 20260505195845 | 89 | 218 | 6.0 | 7.0 | 0.00 | 0.00 | 0.00 | 51 | 1007.9 |
| 20260505195344 | 88 | 258 | 2.0 | 2.0 | 0.00 | 0.00 | 0.00 | 54 | 1007.9 |
| 20260505194839 | 88 | 215 | 7.0 | 9.0 | 0.00 | 0.00 | 0.00 | 53 | 1007.6 |
| 20260505194337 | 88 | 151 | 5.0 | 6.0 | 0.00 | 0.00 | 0.00 | 53 | 1007.8 |
| 20260505193832 | 87 | 181 | 3.0 | 6.0 | 0.00 | 0.00 | 0.00 | 56 | 1007.9 |
| 20260505193330 | 88 | 46 | 1.0 | 1.0 | 0.00 | 0.00 | 0.00 | 56 | 1007.7 |
| 20260505192827 | 88 | 201 | 6.0 | 7.0 | 0.00 | 0.00 | 0.00 | 55 | 1007.8 |
| 20260505192326 | 88 | 158 | 5.0 | 8.0 | 0.00 | 0.00 | 0.00 | 56 | 1008.0 |
| 20260505191823 | 87 | 140 | 2.0 | 2.0 | 0.00 | 0.00 | 0.00 | 55 | 1007.9 |
| 20260505191321 | 87 | 151 | 7.0 | 9.0 | 0.00 | 0.00 | 0.00 | 56 | 1007.9 |
| 20260505190818 | 87 | 186 | 9.0 | 11.0 | 0.00 | 0.00 | 0.00 | 57 | 1008.1 |
| 20260505190313 | 87 | 117 | 8.0 | 10.0 | 0.00 | 0.00 | 0.00 | 57 | 1008.2 |
| 20260505185809 | 87 | 210 | 6.0 | 7.0 | 0.00 | 0.00 | 0.00 | 56 | 1008.4 |
| 20260505185306 | 87 | 176 | 5.0 | 8.0 | 0.00 | 0.00 | 0.00 | 56 | 1008.2 |
| 20260505184802 | 86 | 211 | 5.0 | 6.0 | 0.00 | 0.00 | 0.00 | 58 | 1008.5 |
| 20260505184259 | 86 | 128 | 3.0 | 5.0 | 0.00 | 0.00 | 0.00 | 57 | 1008.6 |
| 20260505183756 | 86 | 164 | 7.0 | 9.0 | 0.00 | 0.00 | 0.00 | 56 | 1008.6 |
| 20260505183253 | 86 | 120 | 6.0 | 9.0 | 0.00 | 0.00 | 0.00 | 56 | 1008.3 |
| 20260505182750 | 85 | 155 | 7.0 | 8.0 | 0.00 | 0.00 | 0.00 | 57 | 1008.7 |
| 20260505182246 | 85 | 200 | 9.0 | 11.0 | 0.00 | 0.00 | 0.00 | 59 | 1008.6 |
| 20260505181743 | 85 | 236 | 4.0 | 5.0 | 0.00 | 0.00 | 0.00 | 58 | 1008.6 |
| 20260505181241 | 85 | 76 | 5.0 | 9.0 | 0.00 | 0.00 | 0.00 | 61 | 1008.4 |
| 20260505180737 | 85 | 231 | 8.0 | 11.0 | 0.00 | 0.00 | 0.00 | 59 | 1008.7 |
| 20260505180233 | 84 | 152 | 9.0 | 10.0 | 0.00 | 0.00 | 0.00 | 62 | 1008.8 |
| 20260505175730 | 84 | 168 | 10.0 | 13.0 | 0.00 | 0.00 | 0.00 | 61 | 1008.9 |
| 20260505175226 | 83 | 137 | 6.0 | 7.0 | 0.00 | 0.00 | 0.00 | 61 | 1008.9 |
| 20260505174723 | 84 | 223 | 6.0 | 8.0 | 0.00 | 0.00 | 0.00 | 62 | 1009.0 |
| 20260505174221 | 83 | 206 | 8.0 | 10.0 | 0.00 | 0.00 | 0.00 | 62 | 1009.1 |
| 20260505173716 | 83 | 207 | 12.0 | 15.0 | 0.00 | 0.00 | 0.00 | 63 | 1009.0 |
| 20260505173213 | 83 | 177 | 9.0 | 11.0 | 0.00 | 0.00 | 0.00 | 62 | 1009.0 |
| 20260505172710 | 82 | 219 | 4.0 | 5.0 | 0.00 | 0.00 | 0.00 | 65 | 1008.8 |
| 20260505172207 | 82 | 116 | 2.0 | 3.0 | 0.00 | 0.00 | 0.00 | 66 | 1008.9 |
| 20260505171706 | 82 | 182 | 9.0 | 10.0 | 0.00 | 0.00 | 0.00 | 65 | 1009.0 |
| 20260505171204 | 81 | 149 | 4.0 | 6.0 | 0.00 | 0.00 | 0.00 | 65 | 1009.2 |
| 20260505170700 | 81 | 190 | 7.0 | 9.0 | 0.00 | 0.00 | 0.00 | 65 | 1009.2 |
| 20260505170158 | 80 | 197 | 12.0 | 15.0 | 0.00 | 0.00 | 0.00 | 67 | 1009.2 |
| 20260505165657 | 80 | 71 | 6.0 | 8.0 | 0.00 | 0.00 | 0.00 | 68 | 1009.1 |
| 20260505165154 | 80 | 183 | 7.0 | 9.0 | 0.00 | 0.00 | 0.00 | 67 | 1009.2 |